Showing default

SHIYAN-33, 68405

Orbit data source: Space-Track

SHIYAN-33, 68405 is a payload satellite owned by Zhongguo Xingwang (CN) in SSO that was launched on Fri, 27 Mar 2026 UTC via a CHANG ZHENG 2C/YZ-1S launch vehicle from the Jiuquan Satellite Launch Center, China (JSC). Payload-class satellites include a variety of spacecraft equipped with specific instruments for various scientific and technological missions. These include communications satellites like Starlink; space stations such as the ISS; scientific satellites like the Hubble; Earth observation satellites from companies like Planet Labs, Umbra, and HawkEye 360; GPS; miniature CubeSats for education and research; and military/defense satellites.

Loading next visibility...
Identifier
68405, 2026-064A
Orbit
SSO
Country
Flag of CNCN / PRC
Related business
Manufacturer
CAST
Mission
Operational spacecraft
Bus & Motor
Unknown
Mass
~2,500 kg wet, ~2,200 kg dry
Launch date (UTC)
2026-03-27 (3 months ago)
Launch vehicle
CHANG ZHENG 2C/YZ-1S
Launch site
Jiuquan Satellite Launch Center, China (JSC)
Object type
Payload
Rocket body
Debris
Shape & HBR
Unknown shape, 2.4 m
Radar Cross Section
Large (>1 m²)

Expand to show TLE details & history
Last TLE update: 9 hours ago

TLE from 9 hours ago
0 SHIYAN-33
1 68405U 26064A   26171.46841594  .00003710  00000-0  15618-3 0  9994
2 68405  97.4619 246.9744 0012344 298.0015  61.9973 15.23943331 12996
Epoch: 2026-06-20T11:14Z
TLE epoch observation values (Epoch: 2026-06-20T11:14:31.137Z)
Latitude
0.00002°
Longitude
169.66206°
Altitude
493.079 km
Speed
7.62 km/s
True Right ascension
16h 27m 53s
True Declination
0° 00' 00"
Sunlit
Object was in full shadow at epoch
Visualization orbit readout
Latitude
Unknown
Longitude
Unknown
Altitude
Unknown
Speed
Unknown
Apparent Right ascension
Unknown
Apparent Declination
Unknown
Sunlit
N/A
Visualization observer readout
Local Sidereal Time
07:20:57
Azimuth
Unknown
Elevation
Unknown
Doppler factor
Unknown
Orbital elements
Apogee altitude
499.402 km
Perigee altitude
482.444 km
Semi-major axis
6,869.06 km
Eccentricity
0.00123
Inclination
97.4619°
RAAN
246.9744°
Arg. of periapsis
298.0015°
True anomaly
62.12228°
Mean anomaly
61.9973°
Eccentric anomaly
62.05978°
Mean motion
3.81239 °/min
Orbital period
94.43 mins
BSTAR
0.00015618
Loading maneuver chart data...
Computing Atmospheric mass density...
Loading historical data...
Loading historical data...
Loading historical data...
Loading historical data...
Loading historical data...
Loading historical data...
Loading historical data...
Other satellites on launch #64 in the year 2026 (2026-03-27 UTC)

Documentation

Showing up to 5 results
|